Other Public Products
Issued by NWS Charleston, SC

Home | Current Version | Previous Version | Text Only | Print | Product List | Glossary On
Versions: 1 2 3 4 5 6 7 8 9 10 11 12 13 14 15 16 17 18 19 20 21 22 23 24 25 26 27 28 29 30 31 32 33 34 35 36 37 38 39 40 41 42 43 44 45 46 47 48 49 50
000
FPUS82 KCHS 221027
OPUCHS

TEST...KCHS/KSAV Gateway Observations...TEST
National Weather Service Charleston SC
600 AM EDT SAT JUL 22 2017

NOTE: "fair" indicates few or no clouds below 12,000 feet with no
significant weather and/or obstructions to visibility.

SCZ050-WAZ558-NCZ071-TXZ119-213-PAZ071-DCZ001-FLZ074-172-MI076-
NYZ176-178-MAZ016-IL014-TNZ027-NJZ106-GAZ044-MD014-221100-

...Gateway Observations for Charleston International...

CITY           SKY/WX    TMP DP  RH WIND       PRES   REMARKS
Chas Airport   CLEAR     76  74  93 CALM      30.00R
Seattle        MOCLDY    65  53  65 S7        30.16S
Charlotte      PTCLDY    76  70  82 S5        29.99R
Dallas DFW     PTCLDY    82  73  74 S8        29.91S
Dallas Love    CLEAR     82  72  71 S8        29.92S
Philladelphia  MOCLDY    80  71  74 CALM      29.87R
Wash National  CLOUDY    80  73  79 N9        29.89R
Baltimore      CLOUDY    78  75  90 NW5       29.87R
Miami          PTCLDY    78  74  87 CALM      30.05R
Detroit        LGT RAIN  76  71  85 S3        29.86F
Newark         CLOUDY    78  67  68 N8        29.87R
Laguardia      MOCLDY    79  70  74 E3        29.86R
J F K          MOCLDY    79  70  74 N6        29.87R
Boston Logan   CLOUDY    75  58  55 W10       29.83R
Ft. Lauderdale PTCLDY    78  74  87 CALM      30.04R
Chicago O`Hare RAIN      73  69  87 SW21G28   29.80F
Chicago Midway LGT RAIN  73  69  87 SW14      29.81S
Houston Bush   PTCLDY    77  75  93 CALM      29.96R
Houston Hobby  PTCLDY    80  75  84 CALM      29.95R
Nashville      CLEAR     76  74  93 S5        29.97R
Atlanta        CLEAR     74  71  91 SW5       30.00S

$$

GAZ044-118-TXZ119-213-NCZ071-DCZ001-MDZ014-506-PAZ021-071-NJZ106-
NYZ176-178-MAZ106-OHZ011-021-055-MIZ076-KYZ091-ILZ014-INZ047-
MNZ060-ONZ431-221100-

...Gateway Observations for Savannah International...

CITY           SKY/WX    TMP DP  RH WIND       PRES   REMARKS
Savannah Arpt  PTCLDY    74  71  90 CALM      30.02R
Atlanta        CLEAR     74  71  91 SW5       30.00S
Charlotte      PTCLDY    76  70  82 S5        29.99R
Dallas DFW     PTCLDY    82  73  74 S8        29.91S
Houston Bush   PTCLDY    77  75  93 CALM      29.96R
Wash National  CLOUDY    80  73  79 N9        29.89R
Wash Dulles    CLOUDY    77  69  76 NW7       29.90R
Baltimore      CLOUDY    78  75  90 NW5       29.87R
Philadelphia   MOCLDY    80  71  74 CALM      29.87R
Newark         CLOUDY    78  67  68 N8        29.87R
Laguardia      MOCLDY    79  70  74 E3        29.86R
J F K          MOCLDY    79  70  74 N6        29.87R
Boston         CLOUDY    75  58  55 W10       29.83R
Pittsburg      DRZL/FOG  73  73 100 S5        29.94F VSB 1
Akron          CLOUDY    75  72  90 S6        29.91F FOG
Cleveland      CLOUDY    76  69  79 S5        29.90F
Cincinnati     CLOUDY    78  76  93 S9        29.90F
Columbus       MOCLDY    72  72 100 SE3       29.89F
Detroit        LGT RAIN  76  71  85 S3        29.86F
Chicago O`Hare RAIN      73  69  87 SW21G28   29.80F
Minneapolis    CLOUDY    72  65  78 W3        29.79R
Indianapolis   CLOUDY    75  69  81 E3        29.90S
Toronto Canada CLOUDY    70  59  68 VRB2      29.89F

$$




USA.gov is the U.S. government's official web portal to all federal, state and local government web resources and services.